Regional Weather Roundup
Issued by NWS

Home | Current Version | Previous Version | Graphics & Text | Print | Product List | Glossary On
Versions: 1 2 3 4 5 6 7 8 9 10 11 12 13 14 15 16 17 18 19 20 21 22 23 24 25 26 27 28
000
ASUS45 KSLC 300610
RWRUT

UTAH REGIONAL WEATHER ROUNDUP
NATIONAL WEATHER SERVICE SALT LAKE CITY UT
1200 AM MDT FRI SEP 30 2016

UTZ001>011-023>025-300700-

NORTHERN UTAH

CITY           SKY/WX    TMP DP  RH WIND       PRES   REMARKS
BRIGHAM CITY     N/A     56  52  85 CALM      30.20R
HILL AFB       MOCLDY    61  48  63 SE9       30.21F
LOGAN          CLEAR     54  50  86 CALM      30.20S
OGDEN          CLOUDY    62  49  62 S8        30.19S
PROVO AIRPORT  PTCLDY    64  49  57 S16       30.23S
SALT LAKE CITY MOCLDY    66  51  58 S12       30.18S
VERNAL         CLOUDY    55  52  89 CALM      30.31F
WENDOVER       PTCLDY    68  45  42 CALM      30.18S
HEBER CITY     PTCLDY    61  45  55 NE3       30.28R
WEST JORDAN    PTCLDY    60  48  64 S8        30.22S

$$

UTZ012>022-026-027-300700-

SOUTHERN/CENTRAL UTAH

CITY           SKY/WX    TMP DP  RH WIND       PRES   REMARKS
BLANDING       CLOUDY    55  53  91 CALM      30.48S
BRYCE CANYON   PTCLDY    47  44  90 CALM      30.45S
CEDAR CITY     CLEAR     56  48  74 S5        30.31R
DELTA          PTCLDY    57  43  58 S9        30.23S
MILFORD        CLEAR     61  48  62 S13       30.26R
MOAB/CYNLANDS  CLOUDY    61  56  83 CALM      30.29F
PRICE          CLOUDY    55  51  86 NE6       30.36F
ST GEORGE      PTCLDY    70  54  56 SE8       30.21S

$$

REGIONAL REPORTS     COLORADO/ARIZONA

CITY           SKY/WX    TMP DP  RH WIND       PRES   REMARKS
CRAIG, CO      CLOUDY    54  50  86 CALM      30.36F
GRAND JUNCTION CLOUDY    60  53  77 SE8       30.32F
RIFLE          LGT RAIN  58  56  93 SE5       30.37S
MONTROSE       CLOUDY    56  52  86 CALM      30.40F
CORTEZ         CLOUDY    50  49  96 CALM      30.41R
PAGE, AZ       MOCLDY    62  59  90 CALM      30.28F
GRAND CANYON   PTCLDY    51  48  89 CALM      30.40S
KINGMAN        CLOUDY    73  49  42 SE14      30.18S
FLAGSTAFF      FOG       51  51 100 E6        30.43S VSB 3/4

$$

REGIONAL REPORTS    NEVADA/IDAHO/WYOMING

CITY           SKY/WX    TMP DP  RH WIND       PRES   REMARKS
LAS VEGAS, NV  PTCLDY    80  43  26 W5        30.07R
ELY            PTCLDY    52  39  61 S8        30.30F
ELKO           CLOUDY    62  46  55 NE7       30.20F
POCATELLO, ID  CLOUDY    57  48  72 NE7       30.20R
BURLEY         PTCLDY    66  46  48 S18       30.12R
EVANSTON, WY   CLEAR     52  41  66 S5        30.36R
ROCK SPRINGS   CLOUDY    53  44  71 S5        30.33F

$$




USA.gov is the U.S. government's official web portal to all federal, state and local government web resources and services.